Zurück zum Katalog

STARLINK-35722

AktivKommunikationVLEO
NORAD 66218·PAYLOAD·🇺🇸 United States

Gestartet Oct 28, 2025 von Vandenberg Space Force Base

Loading…

Nächste Überflüge (nächste 24 Stunden)

TLE

AktuellSource: CelesTrak SupGP

Epoche: Sep 15, 2026, 02:25 UTC

1 66218C 25244N   26258.10118056 -.00022029  00000+0 -65097-3 0  2589
2 66218  53.1589  66.6995 0001165  83.9734  52.6495 15.34395329    10

Verfolge STARLINK-35722 in Echtzeit mit AllMySat

Download on the App Store